CZ-6A DEB

Satellite information

Favourite Embed

Satellite Type and Status

DEBRISIN ORBIT

Key statistics

Satellite CZ-6A DEB at a glance.

Uptime

161

Days in orbit

Revolutions

≈ 14.3

Per day

Orbit

LEO

Low Earth Orbit

Inclination

86.0

Latest

Satellite identification and parameters

Extended collection of information and parameters for CZ-6A DEB.

Object identification

Identified? True

Debris? True

Object name: CZ-6A DEB

International designator: 2025-096F

Object number (NORAD): 63923

Object ID (CCSDS): 63923

Country: PEOPLES REPUBLIC OF CHINA (PRC)

Current information (Y/N): Y

RCS size: LARGE

Orbital parameters

Period: 100.907 minutes

Inclination: 85.9873 deg

SMA: 7179.701 km

Apoapsis: 811.761 km

Periapsis: 791.372 km

RAAN: 294.8816 deg

Eccentricy: 0.00141993

Argument of periapsis: 117.099 deg

Mean anomaly: 243.1652 deg

Mean motion: 14.27063141 rev/day

Mean motion (dot): 0.00000533 rev/day2

B* drag term: 0.0002105148 1/REarth

Two-line elements (TLE)

Creation date: Oct. 18, 2025, 2:17 a.m.

Reference frame: TEME

Reference center: EARTH

Epoch: Oct. 17, 2025, 11:48 p.m. UTC

TLE line 0: 0 CZ-6A DEB

TLE line 1: 1 63923U 25096F 25290.99186448 .00000533 00000-0 21051-3 0 9995

TLE line 2: 2 63923 85.9873 294.8816 0014199 117.0990 243.1652 14.27063141 22606

Live tracking on map

Real-time ground track for satellite CZ-6A DEB.

In-orbit conjunctions

A list of the most updated potential collisions computed for object CZ-6A DEB.

Target Orbit TCA Probability of collision Miss distance Type
COSMOS 2251 DEB LEO 2025-10-02 11:22:13 0.000119831 591.0 (m) DEBRIS
DELTA 1 DEB SSO 2025-08-10 02:50:48 0.0001454017 36.0 (m) DEBRIS
NOAA 16 DEB SSO 2025-08-09 11:59:44 0.000388098 619.0 (m) DEBRIS
DMSP 5D-2 F13 DEB SSO 2025-06-14 16:28:29 0.0002350057 133.0 (m) DEBRIS

Associated space launch

3 Chinese reconnaissance satellites of unknown purposes, officially reported as for "Electromagnetic environment probing".

CZ-6A DEB was lifted into orbit during the mission ‘Long March 6A | Yaogan 40 Group 02’, on board a Long March 6A space rocket.

The launch took place on May 11, 2025, 1:27 p.m. from Launch Complex 9A.

For more information about the launch, click the button.

Launch to space Long March 6A | Yaogan 40 Group 02
Long March 6A | Yaogan 40 Group 02

Agency: N/A

Status: Launch Successful

Launch date: May 11, 2025, 1:27 p.m. UTC

Rocket: Long March 6A

Launch pad: Launch Complex 9A

Location: Taiyuan Satellite Launch Center, People's Republic of China

...

Latest news about this satellite

News about space launch
China adds to classified TJS, Yaogan satellite series with two launches

China has added new spacecraft to two separate classified satellite series with a pair of launches across Sunday and Monday. The post China adds to classified TJS, Yaogan satellite series with two launches appeared first on SpaceNews.


Newsletter sign-up

Weekly statistics, charts and insights to help you stay on top of the space industry.